Location: Narrabri
(30.3170°S, 149.7830°E)
Time: 10:02:28
(UTC+11:00)

OTV 5 (USA 277) - Pass Details

Date: 13 October 2017
Orbit: 404 x 417 km, 43.0° (Epoch: 07 September)

Event Time Altitude Azimuth Distance (km) Brightness Sun altitude
Exits shadow 05:08:51 22° 354° (N) 953 ? -16.8°
Maximum altitude 05:10:18 31° 39° (NE) 733 ? -16.5°
Drops below altitude 10° 05:13:18 10° 104° (ESE) 1,471 ? -15.9°
Sets 05:15:32 0° 114° (ESE) 2,337 ? -15.4°
